Location: Boiro
(42.6475°N, 8.8834°W)
Time: 18:57:25
(UTC+01:00)

Transit 2A - Pass Details

Date: 05 December 2021
Orbit: 591 x 967 km, 66.7° (Epoch: 20 January)

Event Time Altitude Azimuth Distance (km) Brightness Sun altitude
Rises 09:28:13 0° 332° (NNW) 3,660 8.9 5.0°
Reaches altitude 10° 09:30:55 10° 338° (NNW) 2,714 8.3 5.4°
Maximum altitude 09:37:06 49° 52° (NE) 1,215 7.3 6.3°
Drops below altitude 10° 09:43:02 10° 127° (SE) 2,600 12.1 7.1°
Sets 09:45:34 0° 132° (SE) 3,494 12.1 7.5°
